Flag for U.S.A. Weather past 2 weeks in Kalamazoo, Michigan, U.S.A.

Now
80 °F

Sunny.


Feels Like: 81 °F
Forecast: 63 / 84 °F
Wind: 6 mph from South

Location: Kalamazoo / Battle Creek International Airport

Current Time: Jul 5, 2015 at 9:04:21 PM

Latest Report: Jul 5, 2015 at 7:53 PM


Visibility: 10 mi

Pressure: 30.05 "Hg

Humidity: 51%

Dew point: 60 °F

Location of KalamazooLocation

Historic Weather in Kalamazoo — Graph

°F

Kalamazoo temperature yesterday

Maximum temperature yesterday: 80 °F (at 4:53 PM)
Minimum temperature yesterday: 54 °F (at 4:53 AM)
Average temperature yesterday: 67 °F

Past Weeks' High & Low Weather Summary

 TemperatureHumidityPressure
High83 °F (Jun 21, 5:53 PM)100% (Jun 24, 5:53 AM)30.18 "Hg (Jun 24, 5:53 AM)
Low52 °F (Jun 28, 4:53 AM)38% (Jun 24, 3:53 PM)29.71 "Hg (Jun 22, 11:53 PM)
Average68 °F71%29.95 "Hg
* Reported Jun 20 7:53 PM — Jul 5 7:53 PM, Kalamazoo, Weather by CustomWeather, © 2015

Note: Actual official high and low records may vary slightly from our data, if they occured in-between our weather recording intervals... More about our weather records

Advertising

Kalamazoo weather history for previous 24 hours

 ConditionsComfort  
Time TempWeatherWind HumidityBarometerVisibility
7:53 PM
Sun, Jul 5
80 °FSunny.6 mph51%30.05 "Hg10 mi
6:53 PM81 °FSunny.5 mph51%30.06 "Hg10 mi
5:53 PM82 °FPassing clouds.5 mph48%30.07 "Hg10 mi
4:53 PM82 °FSunny.3 mph46%30.07 "Hg10 mi
3:53 PM81 °FSunny.3 mph49%30.07 "Hg10 mi
2:53 PM82 °FSunny.7 mph46%30.09 "Hg10 mi
1:53 PM81 °FSunny.3 mph49%30.10 "Hg10 mi
12:53 PM80 °FPartly sunny.8 mph52%30.10 "Hg10 mi
11:53 AM78 °FSunny.3 mph52%30.11 "Hg10 mi
10:53 AM77 °FSunny.5 mph60%30.11 "Hg10 mi
9:53 AM73 °FSunny.5 mph69%30.12 "Hg9 mi
8:53 AM67 °FSunny.No wind85%30.11 "Hg6 mi
7:53 AM62 °FFog.No wind90%30.11 "Hg4 mi
6:53 AM57 °FFog.No wind93%30.10 "Hg2 mi
5:53 AM58 °FFog.No wind90%30.10 "Hg3 mi
5:03 AM59 °FFog.No wind90%30.09 "Hg3 mi
3:53 AM59 °FFog.No wind90%30.08 "Hg3 mi
3:00 AM59 °FFog.No wind90%30.07 "Hg4 mi
1:53 AM61 °FFog.No wind87%30.05 "Hg4 mi
12:53 AM63 °FClear.No wind84%30.06 "Hg5 mi
11:53 PM
Sat, Jul 4
64 °FClear.No wind81%30.05 "Hg7 mi
10:53 PM65 °FClear.3 mph78%30.03 "Hg10 mi
9:53 PM71 °FSunny.5 mph61%30.01 "Hg10 mi
Weather by CustomWeather, © 2015

See weather overviewHow to use our weather pages